Airfield :
LOGIN :

Register | Disclaimer

   EN    FR    IT 

 










Legend :    VFR   Marginal VFR   IFR   Intensive IFR   Very Intensive IFR
Visi :
Ceiling :
>= 8 km
>= 3000ft
5 to 8 km
1000 to 3000 ft
1500m to 5 km
500 to 1000 ft
800 to 1500m
200 to 500 ft
< 800m
< 200 ft
Symbols :   Thunderstorms  Fog  Heavy snow  Heavy precipitations  Wind > 20 kt
SIGMETs :     Misc.  Thunderstorms  Icing  Turbulence  Mountain Waves  Volcanic Ashes







- Airport Elevation : 25 ft
- IATA code : TPS


LICT - Vincenzo Florio Trapani

CURRENT METAR :
  • 210755Z VRB02KT 9999 FEW020 19/16 Q1018

EXPIRED METARs :
  • 210655Z 14003KT 9999 FEW020 17/14 Q1018
  • 210555Z 13004KT CAVOK 16/13 Q1018 RMK BKN BKN200 VIS MIN 9999 WIND THR13 12003KT BLU

TAF TAF LICT
Valid from the 21 at 09:00 until the 21 at 18:00 UTC


210800Z 2109/2118 33005KT 9999 FEW020
No reported NOTAMs for that airfield.



MET'MAP, your aeronautical weather chart ! - Copyright ORBIFLY December 2007 - Disclaimer

ORBIFLY MET'MAP TEAM :

Programming & Development : Alexandra Zaïnal
Concept & Development : Baudouin d'Aumeries
Co-Development & Prog : Marc-Olivier Méhu
Technical & hardware support : Manuel Goepfert

Contact : metmap@orbifly.com




SOURCES & CREDITS :

   NOAA